Olympia, WA

8:24 PM PST on December 04, 2016 (GMT -0800)
Olympia

Weather History for KOLM - May, 2014

Change the Weather History Date:

Wednesday, May 14, 2014

  Actual Average Record
Temperature  
Mean Temperature 65 °F 54 °F  
Max Temperature 84 °F 65 °F 89 °F (1973)
Min Temperature 46 °F 43 °F 28 °F (1964)
Degree Days  
Heating Degree Days 0 11  
Month to date heating degree days 135 176  
Since 1 July heating degree days 4950 5035  
Cooling Degree Days 0 0  
Month to date cooling degree days 0 0  
Year to date cooling degree days 0 0  
Growing Degree Days 15 (Base 50)    
Moisture  
Dew Point 48 °F    
Average Humidity 59    
Maximum Humidity 86    
Minimum Humidity 31    
Precipitation  
Precipitation 0.00 in 0.07 in 0.93 in (2011)
Month to date precipitation 2.50 1.11  
Year to date precipitation 28.97 23.05  
Sea Level Pressure  
Sea Level Pressure 30.23 in    
Wind  
Wind Speed 5 mph (NNE)    
Max Wind Speed 14 mph    
Max Gust Speed 18 mph    
Visibility 10 miles    
Events      
T = Trace of Precipitation, MM = Missing Value Source: NWS Daily Summary

Daily Weather History Graph

Daily Weather History Graph

Search for Another Location

Airport or City:

Trip Planner

Search our weather history database for the weather conditions in past years. The results will help you decide how hot, cold, wet, or windy it might be!

Date:

Astronomy

May. 14, 2014 Rise Set
Actual Time 5:37 AM PDT 8:39 PM PDT
Civil Twilight 5:01 AM PDT 9:15 PM PDT
Nautical Twilight 4:15 AM PDT 10:01 PM PDT
Astronomical Twilight 3:19 AM PDT 10:58 PM PDT
Moon 8:49 PM PDT (5/14) 5:43 AM PDT (5/14)
Length of Visible Light 16h 13m
Length of Day
15h 01m
Full, 100% of the Moon is Illuminated
May 14
Full
May 14
Full
May 21
Last Quarter
May 28
New
Jun 5
First Quarter

Hourly Weather History & Observations

Time (PDT) Temp. Dew Point Humidity Pressure Visibility Wind Dir Wind Speed Gust Speed Precip Events Conditions
12:54 AM 53.1 °F 46.0 °F 77% 30.32 in 10.0 mi Calm Calm - N/A   Clear
1:54 AM 50.0 °F 45.0 °F 83% 30.31 in 10.0 mi Calm Calm - N/A   Clear
2:54 AM 48.0 °F 44.1 °F 86% 30.31 in 10.0 mi Calm Calm - N/A   Clear
3:54 AM 48.0 °F 45.0 °F 89% 30.30 in 10.0 mi Calm Calm - N/A   Clear
4:54 AM 48.9 °F 45.0 °F 86% 30.30 in 10.0 mi Calm Calm - N/A   Clear
5:54 AM 48.0 °F 44.1 °F 86% 30.30 in 9.0 mi Calm Calm - N/A   Clear
6:54 AM 51.1 °F 46.9 °F 86% 30.31 in 8.0 mi Calm Calm - N/A   Clear
7:54 AM 60.8 °F 51.8 °F 72% 30.31 in 9.0 mi NNE 3.5 mph - N/A   Clear
8:54 AM 64.9 °F 48.9 °F 56% 30.30 in 10.0 mi NNE 5.8 mph - N/A   Clear
9:54 AM 68.0 °F 50.0 °F 52% 30.30 in 10.0 mi North 8.1 mph - N/A   Clear
10:54 AM 70.0 °F 50.0 °F 49% 30.29 in 10.0 mi North 8.1 mph - N/A   Clear
11:54 AM 75.0 °F 48.9 °F 40% 30.27 in 10.0 mi NNE 9.2 mph - N/A   Clear
12:54 PM 78.1 °F 46.9 °F 33% 30.25 in 10.0 mi NNE 11.5 mph - N/A   Clear
1:54 PM 81.0 °F 48.0 °F 31% 30.22 in 10.0 mi NNE 10.4 mph - N/A   Clear
2:54 PM 82.0 °F 48.9 °F 31% 30.21 in 10.0 mi NNE 8.1 mph - N/A   Clear
3:54 PM 82.9 °F 48.0 °F 29% 30.19 in 10.0 mi NE 10.4 mph - N/A   Clear
4:54 PM 82.9 °F 50.0 °F 32% 30.17 in 10.0 mi NNE 10.4 mph - N/A   Clear
5:54 PM 82.9 °F 48.9 °F 31% 30.14 in 10.0 mi NE 10.4 mph - N/A   Clear
6:54 PM 81.0 °F 50.0 °F 34% 30.12 in 10.0 mi NNE 8.1 mph - N/A   Clear
7:54 PM 77.0 °F 48.0 °F 36% 30.12 in 10.0 mi ENE 6.9 mph - N/A   Clear
8:54 PM 73.9 °F 48.0 °F 40% 30.12 in 10.0 mi ENE 5.8 mph - N/A   Clear
9:54 PM 70.0 °F 46.0 °F 42% 30.12 in 10.0 mi NNE 5.8 mph - N/A   Clear
10:54 PM 68.0 °F 48.0 °F 49% 30.11 in 10.0 mi NNE 4.6 mph - N/A   Clear
11:54 PM 59.0 °F 48.0 °F 67% 30.10 in 10.0 mi North 3.5 mph - N/A   Clear